星链-3341 (STARLINK-3341 )

导读

STARLINK-3341是美国太空探索技术公司(SpaceX)星链(Starlink)星座中的一颗低轨通信卫星,于2022年1月6日发射升空。它属于星链第二代批量生产卫星,旨在为全球提供高速低延迟宽带互联网服务,尤其覆盖偏远基础设施匮乏地区。卫星采用平板设计,搭载氪工质霍尔推进器,具备自主避撞能力,寿命末期会主动离轨坠入大气层烧毁。作为星链星座扩容的一部分,它进一步完善了星链的全球覆盖网络,推动低轨卫星互联网的部署进程。

基本信息
目录编号:
50817
目录名称:
STARLINK-3341
国际标识:
2022-001Q
轨道中心:
EARTH
卫星名称:
星链-3341
卫星全名:
星链-3341 (STARLINK-3341 )
卫星状态:
在轨 (已飞行1623 天)
发射日期:
2022-01-06 UTC
国别 :
美国 (US)
星等 :
--
轨道信息
数据来源 国际轨道数据 AOE轨道数据
星历时间 2026-06-17T09:46:23+0800
17小时前
查看轨道信息
2026-06-14T01:00:00+0800
4天前
查看轨道信息
半长轴 6917.904km 6917.884km
偏心率 0.0001471 0.0001733
轨道倾角 53.158° 53.159°
近地点辐角 92.218° 88.360°
升交点赤经 82.873° 98.003°
平近点角 267.898° 340.830°
近地点 538.749km 538.548km
远地点 540.785km 540.946km
周期 95.438分钟 95.438分钟
每日圈数 15.088324 15.088391
详细信息
固有亮度:
5
最大亮度:
2.5
卫星平台:
Starlink v1.5
覆盖范围:
全球
运营商:
太空探索技术公司
运营商所在国:
美国
制造商(研发单位):
太空探索技术公司
制造商所在国:
美国
使用方式:
暂无
卫星简介
星链(Starlink)计划是由太空探索技术公司(SpaceX)提出的一个巨型低轨卫星互联网星座项目,计划在2019年至2024年间在太空搭建由约1.2万颗卫星组成的“星链”网络,其中1584颗将部署在地球上空550千米处的近地轨道,并从2020年开始工作。该卫星仍在工作。
2D轨道图
3D轨道图
轨道高度分析图
轨道倾角分析图
轨道综合分析图
查看轨道综合分析图